Погода в Приморско-Ахтарске

Россия / Краснодарский край     46°02′36″N   38°10′39″E
темп.,
°C
ветер,
м/с
пор.,
м/с
влажн.,
%
обл.,
%
осадки,
мм/ч
давл.,
гПа
погр.,
м
23 октября, сб
сб2300:00+13юз5118836 0.0 1018256
03:00+12юз499515 0.0 1018198
06:00+12ююз3797100 0.0 1018140
09:00+15юз5987100 0.0 1018398
12:00+18юз6863100 0.0 1019851
15:00+18зюз6865100 0.0 1018853
18:00+15зюз3780100 0.0 1018179
21:00+14зюз3687100 0.0 1019139
24 октября, вс
вс2400:00+13ссз5883100 0.0 1019278
03:00+12с3587100 0.4 1020272
06:00+12ссв2385100 0.2 1020136
09:00+13ссв2376100 0.2 1020306
12:00+13с4473100 0.4 1020476
15:00+10с4677100 4.5 1021742
18:00+9ссз6874100 4.0 10211073
21:00+7с6979100 7.1 1023945
25 октября, пн
пн2500:00+7ссз4776100 1.4 1024839
03:00+8юз2372100 1.5 1025193
06:00+8с4767100 0.1 1026266
09:00+8с66675 0.1 1028775
12:00+9с555437 0.0 10291277
15:00+9ссз55517 0.0 10291324
18:00+8с46545 0.0 1031266
21:00+7св35520 0.0 1032169
26 октября, вт
вт2600:00+6св46583 0.0 1032153
03:00+5всв36610 0.0 1032143
06:00+4всв36620 0.0 1033143
09:00+6в57500 0.0 1033374
12:00+9в56380 0.0 1032910
15:00+10в56330 0.0 10301031
18:00+7в47450 0.0 1030204
21:00+6в49510 0.0 1030243
27 октября, ср
ср2700:00+5в410550 0.0 1029232
03:00+4в49590 0.0 1028209
06:00+4в410620 0.0 1027227
09:00+6в59560 0.0 1027313
12:00+11в56450 0.0 1025616
15:00+13в45390 0.0 1024765
18:00+10в33510 0.0 102329
21:00+8всв11565 0.0 102218